Wind_Speed
11 10 9 10 9 9 9 9 9 8 8 8 9 10 10 10 10 10 10 11 12 13 13 14 14 14 12 11 12 11 11 13 13 12 13 13 12 13 14 14 14 14
12 11 10 10 10 9 9 9 9 9 9 9 9 9 9 10 11 11 12 12 14 15 15 15 15 14 14 12 12 11 11 12 13 12 13 14 13 14 15 15 15 15
13 12 11 11 10 9 9 9 9 9 9 10 9 9 9 10 11 12 13 13 14 15 16 16 15 15 15 14 12 12 12 13 14 13 13 13 14 14 15 15 15 16
12 11 11 11 10 9 10 10 10 10 10 10 10 9 9 9 11 12 13 13 14 15 16 17 17 16 15 15 14 13 13 14 15 14 13 13 14 14 14 15 15 16
12 11 11 11 10 10 11 11 11 11 11 10 10 9 10 10 11 12 12 13 14 16 16 17 17 16 16 16 16 15 15 15 16 15 14 14 14 14 14 14 15 16
12 12 12 12 12 12 12 12 11 11 10 10 10 10 10 10 11 12 12 14 15 16 16 17 17 17 16 17 17 17 16 16 16 16 15 14 14 14 14 14 15 16
13 13 13 12 12 12 12 12 11 10 10 10 10 10 11 11 11 12 12 13 14 15 16 16 17 17 17 17 17 17 16 15 16 16 16 15 15 15 15 15 15 16
13 12 12 12 12 12 12 11 11 10 10 10 11 11 11 12 11 12 12 13 14 15 16 17 17 17 17 17 17 17 16 16 16 16 16 15 15 16 16 16 16 17
12 12 12 12 12 11 11 11 10 10 10 10 11 11 12 12 12 12 12 13 14 15 17 18 18 18 18 17 17 17 17 16 16 16 16 16 16 16 16 17 17 17
12 12 11 11 11 11 11 10 10 10 10 11 11 11 12 12 12 13 13 13 14 15 16 18 19 19 19 18 17 17 16 17 17 16 16 16 16 16 17 17 18 18
12 12 11 11 11 11 11 10 10 10 10 11 11 12 12 12 12 12 12 13 14 15 16 18 18 19 19 19 18 17 16 16 17 16 16 16 15 16 16 17 18 19
11 11 11 11 11 10 10 10 10 10 11 11 11 11 12 12 12 12 12 13 13 15 16 17 18 19 19 19 19 18 16 16 16 16 15 15 15 15 16 17 18 19
11 11 11 11 11 10 11 11 11 11 11 11 11 11 11 11 12 12 12 12 13 14 15 16 18 19 20 20 19 19 17 15 15 16 15 14 15 16 16 17 19 19
11 11 11 11 11 11 11 11 11 11 11 11 11 11 11 11 12 12 11 12 12 13 14 16 18 20 22 23 22 21 18 14 15 16 15 15 15 16 17 18 20 20
11 11 11 11 11 11 11 11 11 11 11 11 11 11 11 12 12 12 12 12 12 13 14 16 18 21 25 26 26 24 19 14 14 15 15 15 16 16 17 19 20 20
11 11 11 11 11 12 12 11 11 11 11 12 12 12 12 12 12 12 12 12 12 13 14 16 18 21 25 27 27 24 19 14 14 16 15 15 17 18 18 20 21 20
11 11 12 12 12 12 12 12 11 11 11 11 12 12 12 12 12 12 12 11 12 13 14 15 18 22 25 28 25 22 19 15 14 16 16 16 18 19 19 21 21 22
12 12 12 12 12 12 12 12 11 11 12 11 11 12 12 12 12 12 12 12 11 13 14 15 19 23 27 29 25 21 21 17 14 16 16 17 19 20 20 21 22 23
12 13 13 13 12 12 12 12 12 12 12 11 11 11 12 13 13 13 13 12 11 12 13 16 20 24 27 29 24 20 21 19 16 16 16 17 20 20 19 21 22 23
13 13 13 13 13 12 12 12 12 12 11 11 11 11 12 13 13 13 13 13 12 12 13 16 21 24 26 28 25 20 20 19 16 16 17 18 19 20 20 20 21 23
13 13 13 13 12 12 12 12 12 12 11 11 11 11 11 12 12 12 13 13 12 12 12 15 20 23 24 27 26 21 19 18 16 16 18 18 19 20 20 20 21 23
13 13 13 12 12 12 12 12 11 11 11 11 11 11 11 12 12 12 12 13 13 12 12 14 18 22 23 26 27 22 19 18 17 16 18 19 19 20 20 20 21 23
13 13 12 12 12 11 11 11 11 11 10 11 11 11 11 11 11 11 12 12 13 13 12 12 15 20 21 24 26 24 20 18 17 17 18 19 20 20 19 20 21 22
12 12 12 12 11 11 11 10 10 10 10 10 11 11 11 10 10 10 11 11 12 13 13 11 13 17 20 22 24 25 23 19 18 18 18 18 19 20 19 20 21 21
12 12 11 11 11 11 10 10 9 9 9 9 9 10 10 10 10 10 10 10 10 11 12 12 12 15 19 21 22 24 24 20 18 19 19 18 19 20 19 20 21 21
12 11 11 11 11 10 9 9 9 9 9 9 9 9 9 9 9 9 10 10 9 9 10 12 13 14 17 19 21 22 23 21 19 19 19 18 18 20 19 20 21 21
Wind_Direction
84 85 84 83 82 83 85 85 83 80 78 76 72 65 59 53 48 46 46 42 39 38 34 32 29 26 25 23 23 25 23 18 14 8 4 359 355 352 350 348 347 343
82 84 85 84 83 82 84 85 82 80 78 76 76 71 63 58 54 52 50 46 43 40 37 34 31 29 28 25 23 24 23 19 15 11 8 4 0 356 353 351 348 345
81 82 83 84 84 83 83 84 83 81 81 80 79 73 68 62 58 55 51 48 44 41 39 36 34 32 30 27 25 25 22 19 15 10 10 9 5 0 356 354 351 349
80 80 82 83 84 85 85 87 86 85 84 83 78 74 71 67 62 57 51 48 46 43 41 38 36 35 31 29 29 26 23 19 14 10 9 9 6 2 358 354 352 351
82 81 83 83 84 86 87 89 89 88 85 82 77 72 71 67 63 58 53 50 47 45 43 39 37 36 32 32 31 28 25 20 14 9 7 6 3 1 357 353 352 350
86 85 85 86 87 87 88 87 86 86 82 77 75 70 67 66 62 58 55 52 49 46 44 41 38 36 33 32 30 28 24 19 15 11 9 6 2 1 358 354 352 351
89 88 86 86 85 84 84 83 81 80 77 75 72 67 64 62 60 58 55 53 51 47 44 41 38 36 33 31 29 26 23 18 13 11 9 6 2 1 0 357 354 352
88 86 84 82 81 80 80 80 78 76 74 73 70 64 62 59 57 56 54 52 50 46 43 39 36 34 31 29 26 23 20 16 11 8 6 4 1 0 0 359 357 354
86 83 83 81 80 79 78 78 76 73 71 70 68 64 60 57 55 54 52 51 49 45 42 37 34 31 27 24 22 18 16 13 9 7 4 1 0 360 359 359 358 356
86 84 83 81 80 78 77 76 74 72 69 67 66 63 58 56 54 53 51 50 48 44 40 36 32 28 23 20 16 12 9 7 5 4 2 1 0 359 358 358 358 357
87 85 82 80 80 77 75 74 73 71 69 67 65 62 59 55 53 53 52 50 48 44 40 35 30 25 20 16 11 7 4 2 2 0 0 2 1 0 0 359 358 357
88 86 83 81 80 77 75 74 73 72 70 68 65 63 60 57 55 55 54 52 51 47 42 37 31 25 19 14 8 4 360 359 0 0 360 2 3 3 3 0 359 357
90 87 85 82 79 78 75 73 72 72 72 69 67 65 63 59 57 57 57 56 53 49 44 38 31 26 19 13 7 2 358 357 360 2 2 4 5 5 5 3 0 358
93 89 86 83 80 78 75 74 73 71 72 72 69 67 63 59 58 59 60 59 56 52 46 38 31 26 21 16 8 360 356 357 1 4 5 7 7 5 5 4 0 357
94 90 86 83 81 78 75 75 74 73 73 72 69 67 63 59 58 60 61 61 59 54 46 38 30 26 23 18 10 3 358 359 3 6 8 9 7 5 5 3 359 357
95 91 87 84 82 79 78 76 75 74 73 70 69 66 63 60 59 61 62 60 59 54 46 37 27 24 22 16 13 13 8 3 6 9 10 9 7 5 4 2 359 356
97 93 89 86 83 80 79 77 75 75 73 71 70 66 64 62 60 61 62 59 59 54 45 36 26 22 19 15 18 26 22 11 8 10 10 10 8 6 3 0 358 356
100 97 92 87 84 80 79 78 77 77 75 74 72 68 66 63 61 61 60 57 57 53 46 36 26 21 19 17 22 31 30 22 14 12 11 10 8 6 3 1 357 355
103 99 93 89 85 82 80 80 80 79 77 76 75 72 69 64 61 60 57 54 53 50 46 37 26 21 19 19 23 29 32 30 20 14 13 11 8 6 2 1 358 354
106 101 96 91 87 84 83 81 80 79 77 77 75 72 68 64 60 58 54 52 49 47 46 37 26 21 20 20 22 27 32 30 20 14 13 10 8 6 2 1 359 356
109 104 99 96 92 88 85 82 80 78 76 75 73 70 67 63 60 57 54 51 46 44 46 39 27 22 22 21 21 26 31 26 15 12 13 9 5 5 3 2 1 358
113 108 103 101 98 93 87 83 80 78 75 75 73 70 68 64 61 58 54 50 46 42 43 41 29 23 24 24 22 25 27 20 13 11 11 8 5 4 4 3 2 360
116 111 106 104 101 96 90 85 81 79 77 74 72 70 67 65 63 61 56 52 48 43 39 40 31 25 25 25 23 24 23 15 11 12 9 7 7 5 4 4 3 2
118 113 109 105 102 97 93 88 83 80 77 73 71 69 67 66 66 64 61 56 51 44 39 38 33 27 25 25 22 23 23 17 12 11 9 8 8 6 5 4 2 4
120 116 111 106 103 100 95 91 86 81 78 74 72 70 68 68 66 64 61 56 51 47 40 38 35 27 25 25 23 22 23 20 14 11 9 7 7 5 4 4 2 3
123 120 115 109 106 103 98 94 88 83 79 75 71 70 68 68 67 64 62 57 50 47 43 39 36 28 23 25 25 23 23 21 16 11 7 4 6 5 2 2 3 2
Height
856 857 858 859 859 860 860 861 861 861 861 861 861 861 861 861 860 859 858 857 856 855 853 852 850 848 847 847 846 845 844 844 843 842 841 840 839 837 836 835 833 832
858 858 859 860 860 861 861 862 862 862 862 862 862 862 862 862 861 859 859 858 857 855 854 852 851 849 848 848 847 846 845 844 843 843 842 840 839 838 836 835 833 832
859 860 860 861 861 862 862 863 863 863 863 863 863 863 863 862 861 860 859 858 857 856 854 853 852 850 850 848 848 847 846 845 844 843 842 841 839 838 837 835 833 832
861 861 862 862 862 863 863 863 864 864 864 864 864 864 863 863 862 861 860 859 858 857 855 854 853 852 851 850 849 848 847 846 844 843 842 841 840 838 837 835 834 832
862 863 863 863 864 864 864 864 865 865 865 865 865 864 864 863 862 862 861 860 859 857 856 855 854 853 852 851 850 849 848 847 845 844 843 841 840 839 837 835 834 832
864 864 864 865 865 865 865 865 866 866 866 866 865 865 864 864 863 862 862 861 860 859 858 857 856 854 853 852 851 850 849 848 846 845 843 842 841 839 837 836 834 832
865 865 866 866 866 866 866 866 867 867 867 866 866 865 865 864 864 863 862 862 861 860 859 858 857 856 855 853 852 851 850 849 847 846 844 842 841 839 838 836 835 833
866 866 867 867 867 867 867 867 868 867 867 867 866 866 865 865 864 863 863 862 861 861 860 859 858 857 856 854 853 852 851 850 848 846 845 843 841 840 838 837 835 833
867 867 868 868 868 868 868 868 868 868 868 867 867 866 866 865 865 864 864 863 862 862 860 859 858 857 857 855 854 853 851 850 848 846 845 843 841 840 838 837 835 833
868 869 869 869 869 869 869 869 869 869 869 868 867 867 866 866 865 865 864 863 863 862 861 860 859 858 858 856 855 854 852 850 849 847 845 844 842 840 839 837 835 833
870 870 870 870 870 870 870 870 870 869 869 869 868 868 867 867 866 866 865 865 864 863 863 862 861 860 859 857 856 854 852 851 849 848 846 844 843 841 839 838 836 834
871 871 871 871 871 871 871 871 870 870 870 869 869 869 868 868 868 867 867 866 865 865 864 864 863 862 860 859 857 855 853 852 850 848 847 845 843 842 840 838 837 835
872 872 872 872 872 872 872 871 871 871 870 870 870 870 870 870 869 868 868 867 867 866 866 866 865 864 862 860 858 856 854 852 850 849 847 845 844 842 841 839 837 836
873 873 873 873 873 872 872 872 872 872 871 871 871 871 871 870 870 870 869 869 868 868 868 867 866 865 863 861 859 856 854 853 851 849 847 846 844 842 841 840 838 837
874 874 874 874 874 873 873 873 873 873 872 872 872 872 872 871 871 871 870 870 870 869 869 868 867 866 864 862 859 856 854 853 851 849 847 846 844 843 841 840 839 837
875 875 875 875 875 874 874 874 874 874 873 873 873 873 873 872 872 872 871 871 871 870 870 869 869 867 865 863 860 856 854 852 851 849 848 846 844 843 842 840 839 838
876 876 876 876 876 876 875 875 875 875 875 875 874 874 874 873 873 873 872 872 872 871 871 870 870 868 865 862 859 856 853 852 851 849 848 846 845 843 842 841 839 838
876 877 877 877 877 877 876 876 876 876 876 876 875 875 875 875 874 874 873 873 872 872 872 871 870 868 865 862 859 856 853 851 851 850 848 847 846 844 843 842 840 838
877 877 878 878 877 878 877 877 878 877 877 877 876 876 876 875 875 874 874 874 873 873 872 871 870 867 865 862 859 857 854 852 851 851 849 848 847 845 844 843 841 839
878 878 878 878 878 879 879 879 879 878 878 878 878 877 877 876 876 875 875 874 874 873 873 872 870 868 865 863 860 857 855 853 852 852 850 849 848 846 845 843 842 840
878 878 879 879 879 880 880 879 879 879 879 879 878 878 877 877 877 876 876 875 874 874 873 872 871 869 866 864 861 858 855 854 853 852 851 850 848 846 845 843 842 840
879 879 879 880 880 880 880 880 880 880 880 880 879 879 878 878 877 877 877 876 875 874 874 873 872 870 868 865 862 859 856 855 854 853 851 850 848 846 845 843 842 840
879 879 880 880 881 881 881 881 881 881 880 880 880 879 879 879 878 878 878 877 876 875 875 874 874 871 869 866 863 860 858 856 856 854 852 850 848 847 845 844 842 841
879 880 881 881 881 881 881 882 882 881 881 881 880 880 880 880 879 879 878 878 877 877 876 875 874 873 870 867 865 862 860 858 857 855 853 851 849 847 846 844 842 840
880 881 881 882 882 882 882 882 882 882 882 881 881 881 880 880 880 880 879 879 878 878 877 876 875 873 871 869 867 865 862 860 858 857 854 852 850 848 846 844 842 840
880 881 882 882 882 883 883 883 883 882 882 882 882 882 881 881 881 880 880 880 879 878 877 876 875 874 872 870 868 866 864 862 860 859 856 853 851 849 847 844 842 840